Flight Briefing for CPX262

Departure Arrival
General Edward Lawrence Logan International Airport (KBOS)
Click to view FAA NOTAMS
Kansas City International Airport (KMCI)
Click to view FAA NOTAMS
Departure Time Arrival Time
N/A N/A
Aircraft Distance
B767-300BDSF 1090nm
Departure METAR Arrival METAR
KBOS 190754Z 28006KT 10SM FEW060 02/M11 A3031 RMK AO2 SLP261 T00171111 KMCI 190753Z 13006KT 10SM BKN070 OVC090 06/M04 A3032 RMK AO2 SLP268 T00561044
Suggested Route
HYLND5 HYLND CAM Q822 GONZZ Q29 DORET DJB J60 JOT J26 IRK BQS6


View recent IFR Routes data
Notes
METROAIR CARGO SUPPORT

Charts and Procedures

Charts for KBOS
No chart available
Charts for KMCI
No chart available

Windy.com Weather Map